Location: Carabito
(9.8355°N, 67.9249°W)
Time: 10:15:19
(UTC+00:00)

CZ-4B R/B - Pass Details

Date: 17 August 2024
Orbit: 807 x 881 km, 99.0° (Epoch: 10 September)

Event Time Altitude Azimuth Distance (km) Brightness Sun altitude
Exits shadow 23:34:06 12° 79° (E) 2,411 5.0 -11.8°
Maximum altitude 23:34:40 12° 73° (ENE) 2,400 5.1 -11.9°
Drops below altitude 10° 23:36:37 10° 52° (NE) 2,531 5.3 -12.4°
Sets 23:40:45 0° 22° (NNE) 3,465 6.3 -13.3°
